This is the latest recevied weather packets stored in our database for station/object KK7PZE-13. If no packets are shown the sender has not sent any weather packets the latest 10 day(s).
| Time | Temp. | Humidity | Pressure | Rain* | Wind** | Luminosity | Snow |
|---|---|---|---|---|---|---|---|
| 1777493160 | 27.78° C | 11% | 1013.4 hPa | 0 mm | - | - | - |
| 1777492560 | 27.78° C | 11% | 1013.6 hPa | 0 mm | - | - | - |
| 1777491960 | 27.78° C | 12% | 1013.8 hPa | 0 mm | - | - | - |
| 1777491359 | 27.22° C | 12% | 1013.8 hPa | 0 mm | - | - | - |
| 1777490758 | 27.78° C | 12% | 1013.9 hPa | 0 mm | - | - | - |
| 1777490161 | 27.78° C | 11% | 1013.6 hPa | 0 mm | - | - | - |
| 1777489567 | 27.78° C | 12% | 1013.9 hPa | 0 mm | - | - | - |
| 1777488958 | 27.78° C | 12% | 1014.2 hPa | 0 mm | - | - | - |
| 1777485962 | 26.67° C | 12% | 1015.1 hPa | 0 mm | - | - | - |
| 1777485359 | 27.22° C | 12% | 1015 hPa | 0 mm | - | - | - |
| 1777484759 | 27.22° C | 12% | 1015 hPa | 0 mm | - | - | - |
| 1777483565 | 26.11° C | 13% | 1015 hPa | 0 mm | - | - | - |
| 1777482959 | 26.11° C | 13% | 1014.9 hPa | 0 mm | - | - | - |
| 1777482358 | 25.56° C | 13% | 1015.1 hPa | 0 mm | - | - | - |
| 1777481758 | 25° C | 14% | 1015.1 hPa | 0 mm | - | - | - |
| 1777481160 | 24.44° C | 14% | 1015.3 hPa | 0 mm | - | - | - |
| 1777479958 | 25° C | 14% | 1015.3 hPa | 0 mm | - | - | - |
| 1777478760 | 23.89° C | 15% | 1015.4 hPa | 0 mm | - | - | - |
| 1777478159 | 23.33° C | 16% | 1015.3 hPa | 0 mm | - | - | - |
| 1777476359 | 22.78° C | 17% | 1015.3 hPa | 0 mm | - | - | - |
| 1777475761 | 22.22° C | 17% | 1015.3 hPa | 0 mm | - | - | - |
| 1777473361 | 20.56° C | 19% | 1015 hPa | 0 mm | - | - | - |
| 1777472759 | 20.56° C | 18% | 1014.9 hPa | 0 mm | - | - | - |
| 1777472160 | 19.44° C | 21% | 1014.9 hPa | 0 mm | - | - | - |
| 1777471559 | 17.78° C | 24% | 1015 hPa | 0 mm | - | - | - |
* Rain latest hour (hover to see other rain measurements)
** Current wind speed in m/s (hover to see current wind gust speed)